Location: Bernay
(48.6766°N, 2.9386°E)
Time: 16:51:57
(UTC+00:00)

BREEZE-M DEB (TANK) - Pass Details

Date: 12 January 2026
Orbit: 338 x 14345 km, 49.5° (Epoch: 15 February)

Event Time Altitude Azimuth Distance (km) Brightness Sun altitude
Rises 18:01:10 0° 282° (WNW) 2,579 7.4 -16.7°
Reaches altitude 10° 18:03:26 10° 282° (WNW) 1,388 5.9 -17.1°
Maximum altitude 18:05:56 83° 194° (SSW) 347 1.7 -17.5°
Enters shadow 18:06:08 71° 126° (SE) 363 1.7 -17.5°
